User: anonymous   Login
Location: Unspecified
(0.0000°N, 0.0000°E)
Time: 22:39:18
(UTC+02:00)
Language:

Centaur AC-64 - Orbit

View from above orbital plane
View from above orbital plane
View from above satellite
View from above satellite

Ground track
Ground track

The orbit data is extracted from the following two-line orbital elements,

1 15874U 85055B   16126.32323355  .00001348  00000-0  64344-3 0  9990
2 15874  23.2833 326.4972 6575307 149.1823 275.8055  3.17772738317448
Epoch (UTC): 05 May 2016 07:45:27
Eccentricity: 0.6575307
inclination: 23.2833°
perigee height: 315 km
apogee height: 26015 km
right ascension of ascending node: 326.4972°
argument of perigee: 149.1823°
revolutions per day: 3.17772738
mean anomaly at epoch: 275.8055°
orbit number at epoch: 31744

The dashed part of the orbit path shows where the satellite is in the earth's shadow,  

DLR